パンスターズ彗星

C/2021 A9 ( PanSTARRS )

English version
Home page
Updated on June 1, 2021

---------------------------------------------------------------------

・ プロフィール

発見日 2021年1月12日
発見光度 21.4等
発見者 Pan-STARRS 1 telescope (Haleakala)

・ 写真集

・ 軌道要素

Epoch 2023 Dec. 2.0 TT = JDT 2460280.5
T 2023 Dec. 1.95813 TT                                  Rudenko
q   7.7594765            (2000.0)            P               Q
z  -0.0001755      Peri.  211.47870     -0.25792260     +0.92897586
 +/-0.0000335      Node   314.83434     +0.94586535     +0.29881481
e   1.0013622      Incl.  158.01493     +0.19701438     -0.21843433
From 78 observations 2020 Dec. 12-2021 May 6, mean residual 0".4.

・ 光度変化

        m1 = 5.5 + 5 logΔ + 10.0 log r

---------------------------------------------------------------------

軌道要素はM.P.E.C. 2021-L04に掲載されたものです。
光度グラフはComet for Windowsで作成したものです。

---------------------------------------------------------------------

Copyright(C) Seiichi Yoshida (comet@aerith.net). All rights reserved.